Regional Weather Roundup
Issued by NWS

Home | Current Version | Previous Version | Graphics & Text | Print | Product List | Glossary On
Versions: 1 2 3 4 5 6 7 8 9 10 11 12 13 14 15 16 17 18 19 20 21 22 23 24 25 26 27 28 29 30 31 32 33 34 35 36 37 38 39 40 41 42 43 44 45 46 47 48 49 50
000
ASUS43 KMKX 112211
RWRWI

WISCONSIN REGIONAL WEATHER ROUNDUP
NATIONAL WEATHER SERVICE MILWAUKEE/SULLIVAN WI
500 PM CDT FRI JUL 11 2014

NOTE: "FAIR" INDICATES FEW OR NO CLOUDS BELOW 12,000 FEET WITH NO
SIGNIFICANT WEATHER AND/OR OBSTRUCTIONS TO VISIBILITY.

WIZ001-002-006>008-014>016-023>028-112300-
NORTHWEST WISCONSIN

CITY           SKY/WX    TMP DP  RH WIND       PRES   REMARKS
SUPERIOR ARPT  CLOUDY    73  68  85 SW8       29.93S
ASHLAND        CLOUDY    75  66  73 SW10G21   29.95F
HAYWARD        CLOUDY    75  64  68 SW13G20   29.99R
SIREN          CLOUDY    74  66  77 SW6       29.97S
RICE LAKE      CLOUDY    73  63  72 S9        30.02R
LADYSMITH      CLOUDY    74  63  69 S10G16    30.03S
EAU CLAIRE     CLOUDY    76  65  68 S13       30.00S
MENOMONIE      CLOUDY    76  65  70 S13       30.00F
NEW RICHMOND   CLOUDY    75  66  72 SW7       29.99S
OSCEOLA        CLOUDY    77  68  74 S7        29.99F
$$

WIZ003>005-009-010-017-018-112300-
NORTH CENTRAL WISCONSIN

CITY           SKY/WX    TMP DP  RH WIND       PRES   REMARKS
WOODRUFF       PTSUNNY   74  61  63 SW12G20   30.04S
RHINELANDER    CLOUDY    73  58  59 SW14G26   30.06S
EAGLE RIVER    PTSUNNY   71  57  60 SW9       30.04S
LAND O LAKES   CLOUDY    72  58  62 SW9       30.05R
PHILLIPS       CLOUDY    72  62  70 S10G16    30.02S
TOMAHAWK       CLOUDY    73  59  61 CALM      30.06S
MEDFORD        PTSUNNY   73  60  65 S12G24    30.05F
MERRILL        CLOUDY    76  59  57 SW15      30.06S
$$

WIZ029-030-035-036-043>047-112300-
CENTRAL WISCONSIN

CITY           SKY/WX    TMP DP  RH WIND       PRES   REMARKS
WAUSAU         PTSUNNY   77  56  48 S15       30.05S
MOSINEE        SUNNY     73  57  56 S20       30.08S
MARSHFIELD     MOSUNNY   75  61  61 S9G21     30.06F
STEVENS POINT  SUNNY     75  54  48 S15       30.09R
WAUPACA        SUNNY     79  56  44 S16       30.09R HX  80
WAUTOMA        SUNNY     77  56  48 S14       30.09F
WISC RAPIDS    MOSUNNY   76  54  46 SW14      30.09F
CAMP DOUGLAS   PTSUNNY   74  62  66 SE12      30.07F
$$

WIZ011>013-019>022-031-037>040-048>050-112300-
NORTHEAST WISCONSIN

CITY           SKY/WX    TMP DP  RH WIND       PRES   REMARKS
ANTIGO         PTSUNNY   72  58  60 S12       30.08S
STURGEON BAY   SUNNY     73  57  56 S12       30.09S
GREEN BAY      CLOUDY    78  57  48 SW9       30.07R
MANITOWOC      SUNNY     70  56  61 S17       30.09F
APPLETON       PTSUNNY   79  54  41 SW17      30.09R
CLINTONVILLE   MOSUNNY   79  50  36 S13G20    30.07S
OSHKOSH        PTSUNNY   78  59  51 S13       30.09R
$$

WIZ032>034-041-042-053>061-112300-
SOUTHWEST WISCONSIN

CITY           SKY/WX    TMP DP  RH WIND       PRES   REMARKS
LA CROSSE      MOSUNNY   80  65  59 S15       30.01F HX  82
SPARTA         PTSUNNY   76  60  57 SE10      30.05F
VIROQUA        FAIR      76  63  64 S12G18    30.07S
BOSCOBEL       MOSUNNY   79  64  60 VRB5      30.06F HX  81
PRAIRIE DU CHI MOSUNNY   76  61  59 SE9       30.05S
PLATTEVILLE    FAIR      74  64  71 SE9       30.07F
$$

WIZ056-057-062-063-064-067-068-112300-
SOUTH CENTRAL WISCONSIN

CITY           SKY/WX    TMP DP  RH WIND       PRES   REMARKS
BARABOO/DELLS  CLOUDY    73  56  55 S9        30.09F
LONE ROCK      PTSUNNY   78  63  59 S9        30.08S HX  80
WATERTOWN      CLOUDY    76  57  52 S8        30.10R
MADISON        CLOUDY    77  57  50 S12       30.11R
MIDDLETON      MOCLDY    76  54  47 S10       30.11R
MONROE         CLOUDY    72  59  64 S9        30.10S
JANESVILLE     PTSUNNY   75  54  46 S9        30.10R
$$

WIZ051-052-058>065-066-070>072-112300-
SOUTHEAST WISCONSIN

CITY           SKY/WX    TMP DP  RH WIND       PRES   REMARKS
MILWAUKEE      CLOUDY    71  53  52 SE9       30.10F
WAUKESHA       SUNNY     73  54  49 S12       30.12F
MILWAUKEE/TIMM SUNNY     75  45  33 S9        30.11R
RACINE         CLOUDY    71  52  50 S9        30.11F
BURLINGTON     CLOUDY    72  56  57 SE8       30.11R
KENOSHA        CLOUDY    72  54  53 S14       30.10F
FOND DU LAC    PTSUNNY   76  55  48 SW15G22   30.10R
SHEBOYGAN      PTSUNNY   73  53  49 S13       30.09F
WEST BEND      PTSUNNY   73  54  49 S9        30.10S
JUNEAU         PTSUNNY   74  37  25 S14G21    30.12S
$$

LSZ147-162-112300-
LAKE SUPERIOR

STATION/POSITION TIME  TEMP    WIND        PRES    WAVE
                       AIR SEA DIR/SP/G            HT/PER
                 (UTC) (F)     (DEG/KT/KT) (MB)    (FT/S)
W MID LAKE BUOY  2150   49 38  220/ 10/ 12 1013.6F   1/ 4
PORT WING        2100          280/  7/ 23 1013.9
SAXON HARBOR     2100          200/  7/ 15 1013.9S
$$

LMZ867-665-643>646-112300-
LAKE MICHIGAN

STATION/POSITION TIME  TEMP    WIND        PRES    WAVE
                       AIR SEA DIR/SP/G            HT/PER
                 (UTC) (F)     (DEG/KT/KT) (MB)    (FT/S)
N MID LAKE BUOY  2150   59 53  200/ 17/ 21 1018.0F   3/ 5
NORTHPORT PIER   2100   67     160/  8/ 13 1018.6F
KEWAUNEE LAKESHO 2100   57     180/ 16/ 18 1019.7F
SHEBOYGAN LAKESH 2200   64     180/ 16/ 16 1019.0F
PORT WASHINGTON  2100   64     200/  5/  9 1020.0F
MILWAUKEE LAKESH 2100   61     150/ 19/ 20   N/A
S MID LAKE BUOY  2150   65 64  140/  8/  8 1020.0F   0
KENOSHA   LAKESH 2200   66     180/ 12/ 14   N/A
$$

TC  - TEMPERATURE IN CELSIUS
VSB - VISIBILITY IN STATUTE MILES
WCI - WIND CHILL INDEX
HX  - HEAT INDEX



USA.gov is the U.S. government's official web portal to all federal, state and local government web resources and services.